Simultaneous Nadir Overpasses (SNOs) Predictions

Prediction of SNOs between NOAA-19 and NPP Satellite Orbit:

Table of predicted SNOs for the next 14.0 days since TLE Epoch: 9/7/2018
Index Date (NOAA-19) Time (NOAA-19) Lat,Lon (NOAA-19) SZA (NOAA-19 ) Date (NPP) Time (NPP) Lat,Lon (NPP) SZA (NPP ) Distance(km) Time Diff (sec)
1 09/16/2018 05:32:11 -80.44,-127.07 99.68 09/16/2018 05:33:20 -80.43,-127.06 99.72 0.75 69
2 09/16/2018 06:23:09 80.44, 40.22 80.33 09/16/2018 06:24:05 80.43, 40.24 80.30 0.87 56
3 09/16/2018 07:14:12 -80.44,-152.55 99.66 09/16/2018 07:14:50 -80.43,-152.46 99.69 1.89 38
4 09/16/2018 08:05:10 80.44, 14.74 80.36 09/16/2018 08:05:35 80.43, 14.84 80.33 2.06 25
5 09/16/2018 08:56:13 -80.44,-178.03 99.63 09/16/2018 08:56:20 -80.43,-177.85 99.66 3.37 7
6 09/16/2018 09:47:11 80.44, -10.75 80.38 09/16/2018 09:47:06 80.46, -10.88 80.41 3.20 5
7 09/16/2018 10:38:13 -80.44, 156.49 99.61 09/16/2018 10:37:50 -80.46, 156.43 99.58 2.40 23
8 09/16/2018 11:29:11 80.44, -36.23 80.41 09/16/2018 11:28:35 80.46, -36.28 80.44 2.27 36
9 09/16/2018 12:20:14 -80.44, 131.01 99.58 09/16/2018 12:19:20 -80.46, 131.03 99.55 2.17 54




NCC Satellite Simultaneous Nadir Overpasses (SNOs) Prediction Service
